This demonstration page uses our WeatherBlox Daily Observations layout. Learn more.

Left ArrowRight Arrow

39.51506, -84.39828

Hourly Observations for March 27, 2017

Temp ( °F °C ) Dew Point ( °F °C ) Humidity (%) Winds ( mph kmh ) Pressure ( in mb ) Visibility ( mi km ) Precip ( " mm )
12:15 am 00:15 Clear 55 12.5 49 9.5 82 82 Calm 29.97 1015 10 16 0.00 0.00
12:35 am 00:35 Clear 55 12.5 49 9.5 82 82 Calm 29.97 1015 10 16 0.00 0.00
12:55 am 00:55 Clear 55 12.5 49 9.5 82 82 Calm 29.97 1015 7 11 0.00 0.00
1:15 am 01:15 Mostly Cloudy with Haze 53 11.5 48 8.9 84 84 Calm 29.97 1015 1 2 0.00 0.00
1:35 am 01:35 Mostly Cloudy with Haze 54 12.4 49 9.7 84 84 Calm 29.97 1015 1 1 0.00 0.00
1:55 am 01:55 Mostly Cloudy with Fog 49 9.6 45 7.1 85 85 Calm 29.97 1015 0 0 0.00 0.00
2:15 am 02:15 Mostly Cloudy with Fog 49 9.6 45 7.1 85 85 Calm 29.97 1015 0 0 0.00 0.00
2:35 am 02:35 Mostly Cloudy with Haze 49 9.3 44 6.8 85 85 Calm 29.97 1015 0 0 0.00 0.00
2:55 am 02:55 Mostly Cloudy with Fog 49 9.6 45 7.2 85 85 Calm 29.97 1015 0 0 0.00 0.00
3:10 am 03:10 Mostly Cloudy with Fog 49 9.6 45 7.2 85 85 Calm 29.97 1015 0 0 0.00 0.00
3:35 am 03:35 Mostly Cloudy with Fog 49 9.6 45 7.2 85 85 Calm 29.97 1015 0 0 0.00 0.00
3:55 am 03:55 Mostly Cloudy with Fog 49 9.5 45 7.1 85 85 Calm 29.97 1015 1 1 0.00 0.00
4:15 am 04:15 Mostly Cloudy with Fog 49 9.6 45 7.2 85 85 Calm 29.97 1015 1 1 0.00 0.00
4:35 am 04:35 Mostly Cloudy with Fog 44 6.8 40 4.5 85 85 Calm 29.97 1015 0 0 0.00 0.00
4:55 am 04:55 Cloudy with Fog 44 6.8 40 4.5 85 85 Calm 29.97 1015 5 8 0.00 0.00
5:15 am 05:15 Mostly Cloudy with Fog 46 7.6 42 5.3 86 86 Calm 29.97 1015 0 0 0.00 0.00
5:35 am 05:35 Cloudy with Fog 44 6.7 40 4.4 85 85 Calm 29.97 1015 0 0 0.00 0.00
5:55 am 05:55 Cloudy with Haze 44 6.9 40 4.6 85 85 Calm 30.00 1016 1 1 0.00 0.00
6:15 am 06:15 Cloudy with Mist and Fog 47 8.2 42 5.8 85 85 Calm 30.00 1016 1 2 0.00 0.00
6:35 am 06:35 Cloudy with Fog 47 8.2 43 5.9 86 86 Calm 30.00 1016 1 1 0.00 0.00
6:55 am 06:55 Mostly Cloudy with Fog 47 8.2 42 5.8 85 85 Calm 30.00 1016 1 1 0.00 0.00
7:15 am 07:15 Cloudy with Fog 44 6.8 40 4.5 85 85 Calm 30.00 1016 0 0 0.00 0.00
7:35 am 07:35 Cloudy with Fog 43 5.9 38 3.6 85 85 Calm 30.00 1016 5 8 0.00 0.00
7:55 am 07:55 Mostly Cloudy with Fog 44 6.6 40 4.3 85 85 Calm 30.00 1016 5 8 0.00 0.00
8:15 am 08:15 Mostly Cloudy with Fog 46 7.5 41 5.1 85 85 Calm 30.00 1016 0 0 0.00 0.00
8:35 am 08:35 Sunny with Mist and Fog 49 9.6 45 7.2 85 85 Calm 30.03 1017 2 3 0.00 0.00
8:55 am 08:55 Sunny with Mist and Fog 51 10.8 47 8.4 85 85 Calm 30.03 1017 4 6 0.00 0.00
9:15 am 09:15 Sunny 55 12.5 50 10 85 85 Calm 30.00 1016 7 11 0.00 0.00
9:35 am 09:35 Sunny 55 12.5 50 10 85 85 Calm 30.03 1017 10 16 0.00 0.00
9:55 am 09:55 Sunny 55 12.5 50 10 85 85 Calm 30.03 1017 10 16 0.00 0.00
10:15 am 10:15 Sunny 55 12.6 50 10.1 85 85 Calm 30.03 1017 10 16 0.00 0.00
10:35 am 10:35 Sunny 56 13.4 51 10.8 84 84 Calm 30.03 1017 10 16 0.00 0.00
10:55 am 10:55 Sunny 57 14.1 52 10.9 81 81 Calm 30.03 1017 10 16 0.00 0.00
11:15 am 11:15 Sunny 60 15.8 49 9.7 67 67 Calm 29.97 1015 10 16 0.00 0.00
11:35 am 11:35 Sunny 62 16.5 48 8.7 60 60 Calm 29.97 1015 10 16 0.00 0.00
11:55 am 11:55 Sunny 62 16.6 45 7.2 54 54 Calm 29.97 1015 10 16 0.00 0.00
12:15 pm 12:15 Sunny 63 17.1 46 7.9 55 55 Calm 29.97 1015 10 16 0.00 0.00
12:35 pm 12:35 Sunny 62 16.6 45 7 53 53 Calm 29.97 1015 10 16 0.00 0.00
12:55 pm 12:55 Sunny 63 17 45 7.4 53 53 Calm 29.97 1015 10 16 0.00 0.00
1:15 pm 13:15 Partly Cloudy 64 18 46 8 52 52 Calm 29.97 1015 10 16 0.00 0.00
1:35 pm 13:35 Partly Cloudy 65 18.2 46 7.8 51 51 Calm 29.94 1014 10 16 0.00 0.00
1:55 pm 13:55 Partly Cloudy 67 19.3 46 7.7 47 47 Calm 29.94 1014 10 16 0.00 0.00
2:15 pm 14:15 Mostly Cloudy 66 18.8 46 7.5 48 48 Calm 29.94 1014 10 16 0.00 0.00
2:35 pm 14:35 Partly Cloudy 67 19.3 46 7.8 47 47 Calm 29.91 1013 10 16 0.00 0.00
2:55 pm 14:55 Partly Cloudy 67 19.5 47 8.4 49 49 Calm 29.88 1012 10 16 0.00 0.00
3:15 pm 15:15 Partly Cloudy 67 19.5 48 8.7 50 50 Calm 29.88 1012 10 16 0.00 0.00
3:35 pm 15:35 Sunny 69 20.8 49 9.4 48 48 Calm 29.88 1012 10 16 0.00 0.00
3:55 pm 15:55 Partly Cloudy 69 20.8 49 9.5 49 49 Calm 29.88 1012 10 16 0.00 0.00
4:10 pm 16:10 Mostly Cloudy 69 20.4 49 9.7 50 50 Calm 29.88 1012 10 16 0.00 0.00
4:35 pm 16:35 Cloudy 69 20.3 50 10.1 52 52 Calm 29.88 1012 10 16 0.00 0.00
4:55 pm 16:55 Mostly Cloudy 69 20.8 51 10.6 52 52 Calm 29.85 1011 10 16 0.00 0.00
5:15 pm 17:15 Partly Cloudy 69 20.8 51 10.4 52 52 Calm 29.85 1011 10 16 0.00 0.00
5:35 pm 17:35 Sunny 69 20.8 51 10.7 53 53 Calm 29.85 1011 10 16 0.00 0.00
5:55 pm 17:55 Sunny 69 20.8 52 11.1 54 54 Calm 29.85 1011 10 16 0.00 0.00
6:15 pm 18:15 Partly Cloudy 69 20.8 52 11.1 54 54 Calm 29.85 1011 10 16 0.00 0.00
6:35 pm 18:35 Partly Cloudy 68 20.2 52 11.1 56 56 Calm 29.85 1011 10 16 0.00 0.00
6:55 pm 18:55 Partly Cloudy 69 20.3 53 11.4 57 57 Calm 29.83 1010 10 16 0.00 0.00
7:15 pm 19:15 Partly Cloudy 64 18 50 10.1 60 60 Calm 29.83 1010 10 16 0.00 0.00
7:35 pm 19:35 Mostly Cloudy 64 17.5 51 10.6 64 64 Calm 29.83 1010 10 16 0.00 0.00
7:55 pm 19:55 Cloudy 63 17.1 51 10.4 65 65 Calm 29.83 1010 10 16 0.00 0.00
8:15 pm 20:15 Cloudy 63 17 51 10.5 66 66 Calm 29.83 1010 10 16 0.00 0.00
8:35 pm 20:35 Cloudy with Rain 63 17.2 51 10.6 65 65 Calm 29.83 1010 7 11 0.00 0.00
8:55 pm 20:55 Cloudy with Rain 62 16.6 54 12.1 75 75 Calm 29.85 1011 7 11 0.00 0.00
9:15 pm 21:15 Cloudy with Heavy Rain 61 15.9 55 12.5 80 80 Calm 29.85 1011 3 5 0.00 0.00
9:35 pm 21:35 Cloudy with Heavy Rain 60 15.3 54 12 81 81 Calm 29.85 1011 4 6 0.00 0.00
9:55 pm 21:55 Cloudy with Light Rain 60 15.3 54 12.2 82 82 Calm 29.85 1011 10 16 0.00 0.00
10:15 pm 22:15 Cloudy with Light Rain 60 15.3 54 12.2 82 82 Calm 29.85 1011 7 11 0.00 0.00
10:35 pm 22:35 Cloudy with Light Rain 59 15 54 12.1 83 83 Calm 29.85 1011 7 11 0.00 0.00
10:55 pm 22:55 Cloudy with Drizzle 57 14.1 52 11.3 83 83 Calm 29.85 1011 5 8 0.00 0.00
11:15 pm 23:15 Cloudy with Light Rain 57 14 52 11.3 84 84 Calm 29.88 1012 4 6 0.00 0.00
11:35 pm 23:35 Cloudy with Light Rain 59 15.1 54 12.4 84 84 Calm 29.83 1010 4 6 0.00 0.00
11:55 pm 23:55 Cloudy with Drizzle 60 15.3 54 12.3 82 82 Calm 29.83 1010 10 16 0.00 0.00

Powered by AerisWeather